Port Huron, MI

11:04 AM EDT on October 19, 2017 (GMT -0400)
Saint Clair County International

Weather History for KPHN - January, 2013

Change the Weather History Date:

Thursday, January 17, 2013

  Actual Average (KMTC) Record (KMTC)
Temperature  
Mean Temperature 26 °F -  
Max Temperature 35 °F 31 °F 62 °F (1952)
Min Temperature 17 °F 16 °F -9 °F (2009)
Degree Days  
Heating Degree Days 39    
Moisture  
Dew Point 19 °F    
Average Humidity 67    
Maximum Humidity 80    
Minimum Humidity 49    
Precipitation  
Precipitation 0.00 in - - ()
Sea Level Pressure  
Sea Level Pressure 30.13 in    
Wind  
Wind Speed 7 mph (NW)    
Max Wind Speed 16 mph    
Max Gust Speed 31 mph    
Visibility 10 miles    
Events Snow    
Averages and records for this station are not official NWS values.
T = Trace of Precipitation, MM = Missing Value Source: NWS Daily Summary

Daily Weather History Graph

Daily Weather History Graph

Search for Another Location

Airport or City:

Trip Planner

Search our weather history database for the weather conditions in past years. The results will help you decide how hot, cold, wet, or windy it might be!

Date:

Astronomy

Jan. 17, 2013 Rise Set
Actual Time 7:57 AM EST 5:23 PM EST
Civil Twilight 7:25 AM EST 5:55 PM EST
Nautical Twilight 6:51 AM EST 6:30 PM EST
Astronomical Twilight 6:17 AM EST 7:03 PM EST
Moon 10:52 AM EST (1/17) No Moon Set
Length of Visible Light 10h 29m
Length of Day
9h 26m
Waxing Crescent, 37% of the Moon is Illuminated
Jan 17
Waxing Crescent
Jan 18
First Quarter
Jan 26
Full
Feb 3
Last Quarter
Feb 10
New

Hourly Weather History & Observations

Time (EST) Temp. Windchill Dew Point Humidity Pressure Visibility Wind Dir Wind Speed Gust Speed Precip Events Conditions
12:18 AM 35.6 °F 29.9 °F 28.4 °F 75% 29.92 in 10.0 mi West 6.9 mph 16.1 mph N/A   Overcast
12:38 AM 35.6 °F 29.9 °F 28.4 °F 75% 29.92 in 10.0 mi West 6.9 mph - N/A   Overcast
12:58 AM 35.6 °F 30.7 °F 28.4 °F 75% 29.94 in 10.0 mi West 5.8 mph - N/A   Overcast
1:18 AM 35.6 °F 28.6 °F 28.4 °F 75% 29.95 in 10.0 mi West 9.2 mph - N/A   Overcast
1:38 AM 35.6 °F 28.6 °F 28.4 °F 75% 29.96 in 10.0 mi West 9.2 mph 16.1 mph N/A   Overcast
1:58 AM 35.6 °F 30.7 °F 28.4 °F 75% 29.97 in 10.0 mi West 5.8 mph - N/A   Overcast
2:18 AM 35.6 °F 28.6 °F 28.4 °F 75% 29.98 in 10.0 mi West 9.2 mph - N/A   Overcast
2:38 AM 35.6 °F 27.5 °F 28.4 °F 75% 29.99 in 10.0 mi WNW 11.5 mph 17.3 mph N/A   Overcast
2:58 AM 35.6 °F 29.9 °F 26.6 °F 70% 30.00 in 10.0 mi WNW 6.9 mph - N/A   Overcast
3:18 AM 33.8 °F 26.4 °F 26.6 °F 75% 30.01 in 10.0 mi NW 9.2 mph - N/A   Overcast
3:38 AM 33.8 °F 28.6 °F 26.6 °F 75% 30.01 in 10.0 mi NW 5.8 mph - N/A   Overcast
3:58 AM 33.8 °F 29.6 °F 26.6 °F 75% 30.01 in 10.0 mi WNW 4.6 mph - N/A   Mostly Cloudy
4:18 AM 33.8 °F - 26.6 °F 75% 30.02 in 10.0 mi Calm Calm - N/A   Overcast
4:37 AM 32.0 °F - 26.6 °F 80% 30.03 in 10.0 mi Calm Calm - N/A   Overcast
4:58 AM 32.0 °F - 26.6 °F 80% 30.04 in 10.0 mi Calm Calm - N/A   Overcast
5:18 AM 32.0 °F - 26.6 °F 80% 30.05 in 10.0 mi Calm Calm - N/A   Overcast
5:38 AM 33.8 °F 27.7 °F 24.8 °F 70% 30.07 in 10.0 mi NNW 6.9 mph - N/A   Overcast
5:58 AM 32.0 °F 26.4 °F 26.6 °F 80% 30.08 in 10.0 mi NNW 5.8 mph - N/A   Overcast
6:17 AM 32.0 °F - 26.6 °F 80% 30.09 in 10.0 mi Calm Calm - N/A   Overcast
6:38 AM 32.0 °F 26.4 °F 24.8 °F 75% 30.10 in 10.0 mi North 5.8 mph - N/A   Overcast
6:58 AM 32.0 °F 27.5 °F 24.8 °F 75% 30.10 in 10.0 mi NNW 4.6 mph - N/A   Overcast
7:18 AM 30.2 °F 22.6 °F 23.0 °F 75% 30.11 in 10.0 mi North 8.1 mph - N/A   Overcast
7:38 AM 30.2 °F 23.4 °F 23.0 °F 75% 30.11 in 10.0 mi NNE 6.9 mph - N/A   Overcast
7:57 AM 30.2 °F 22.6 °F 21.2 °F 69% 30.12 in 10.0 mi North 8.1 mph - N/A   Overcast
8:18 AM 30.2 °F 23.4 °F 21.2 °F 69% 30.13 in 10.0 mi North 6.9 mph - N/A   Overcast
8:38 AM 28.4 °F 23.3 °F 19.4 °F 69% 30.15 in 10.0 mi North 4.6 mph - N/A   Overcast
8:58 AM 28.4 °F 21.2 °F 19.4 °F 69% 30.15 in 10.0 mi North 6.9 mph - N/A   Overcast
9:18 AM 28.4 °F 21.2 °F 17.6 °F 64% 30.16 in 10.0 mi North 6.9 mph - N/A   Overcast
9:38 AM 28.4 °F 24.6 °F 19.4 °F 69% 30.17 in 10.0 mi North 3.5 mph - N/A   Overcast
9:58 AM 28.4 °F 23.3 °F 19.4 °F 69% 30.17 in 10.0 mi NNW 4.6 mph - N/A   Overcast
10:18 AM 28.4 °F 24.6 °F 19.4 °F 69% 30.17 in 10.0 mi NNW 3.5 mph - N/A   Overcast
10:38 AM 30.2 °F 25.4 °F 19.4 °F 64% 30.17 in 10.0 mi NNE 4.6 mph - N/A   Overcast
10:58 AM 30.2 °F 25.4 °F 19.4 °F 64% 30.17 in 10.0 mi NNE 4.6 mph - N/A   Overcast
11:18 AM 30.2 °F 25.4 °F 19.4 °F 64% 30.18 in 10.0 mi NNW 4.6 mph - N/A   Overcast
11:38 AM 30.2 °F 25.4 °F 19.4 °F 64% 30.17 in 10.0 mi WNW 4.6 mph - N/A   Overcast
11:58 AM 30.2 °F 25.4 °F 19.4 °F 64% 30.17 in 10.0 mi NNW 4.6 mph - N/A   Overcast
12:18 PM 30.2 °F 25.4 °F 19.4 °F 64% 30.16 in 10.0 mi NW 4.6 mph - N/A   Overcast
12:38 PM 30.2 °F 26.7 °F 19.4 °F 64% 30.15 in 10.0 mi NNW 3.5 mph - N/A   Overcast
12:58 PM 30.2 °F 25.4 °F 19.4 °F 64% 30.14 in 10.0 mi NW 4.6 mph - N/A   Overcast
1:18 PM 30.2 °F 26.7 °F 19.4 °F 64% 30.13 in 10.0 mi NW 3.5 mph - N/A   Overcast
1:38 PM 30.2 °F 26.7 °F 19.4 °F 64% 30.12 in 10.0 mi West 3.5 mph - N/A   Mostly Cloudy
1:58 PM 32.0 °F 26.4 °F 19.4 °F 60% 30.11 in 10.0 mi WSW 5.8 mph - N/A   Overcast
2:18 PM 30.2 °F 26.7 °F 19.4 °F 64% 30.11 in 10.0 mi SW 3.5 mph - N/A   Overcast
2:38 PM 30.2 °F 25.4 °F 19.4 °F 64% 30.11 in 10.0 mi WNW 4.6 mph - N/A   Overcast
2:58 PM 30.2 °F 24.3 °F 19.4 °F 64% 30.11 in 10.0 mi North 5.8 mph - N/A   Overcast
3:18 PM 30.2 °F 23.4 °F 19.4 °F 64% 30.11 in 10.0 mi North 6.9 mph - N/A   Overcast
3:38 PM 30.2 °F 25.4 °F 19.4 °F 64% 30.11 in 10.0 mi NNW 4.6 mph - N/A   Overcast
3:58 PM 30.2 °F 23.4 °F 21.2 °F 69% 30.11 in 10.0 mi NW 6.9 mph - N/A   Overcast
4:18 PM 28.4 °F 20.4 °F 21.2 °F 74% 30.12 in 10.0 mi NW 8.1 mph - N/A Snow Light Snow
4:38 PM 30.2 °F 25.4 °F 21.2 °F 69% 30.13 in 10.0 mi WNW 4.6 mph - N/A   Overcast
4:58 PM 30.2 °F 22.6 °F 19.4 °F 64% 30.14 in 10.0 mi NW 8.1 mph 17.3 mph N/A   Overcast
5:18 PM 30.2 °F 20.8 °F 17.6 °F 60% 30.14 in 10.0 mi WNW 11.5 mph 21.9 mph N/A   Overcast
5:38 PM 28.4 °F 18.0 °F 17.6 °F 64% 30.15 in 10.0 mi NW 12.7 mph 18.4 mph N/A   Overcast
5:58 PM 28.4 °F 19.7 °F 17.6 °F 64% 30.17 in 10.0 mi NW 9.2 mph 20.7 mph N/A   Overcast
6:18 PM 26.6 °F 16.8 °F 17.6 °F 69% 30.18 in 10.0 mi WNW 10.4 mph - N/A   Overcast
6:38 PM 26.6 °F 17.5 °F 17.6 °F 69% 30.18 in 10.0 mi WNW 9.2 mph 18.4 mph N/A   Overcast
6:58 PM 26.6 °F 15.7 °F 17.6 °F 69% 30.19 in 10.0 mi WNW 12.7 mph 18.4 mph N/A   Overcast
7:18 PM 24.8 °F 12.9 °F 15.8 °F 69% 30.20 in 10.0 mi WNW 13.8 mph 20.7 mph N/A   Scattered Clouds
7:37 PM 24.8 °F 14.6 °F 15.8 °F 69% 30.21 in 10.0 mi NW 10.4 mph 20.7 mph N/A   Mostly Cloudy
7:58 PM 24.8 °F 12.9 °F 14.0 °F 64% 30.22 in 10.0 mi WNW 13.8 mph 26.5 mph N/A   Overcast
8:18 PM 23.0 °F 9.6 °F 12.2 °F 63% 30.23 in 10.0 mi NW 16.1 mph 31.1 mph N/A   Mostly Cloudy
8:38 PM 23.0 °F 9.6 °F 10.4 °F 59% 30.24 in 10.0 mi NW 16.1 mph 27.6 mph N/A   Mostly Cloudy
8:58 PM 21.2 °F 7.8 °F 8.6 °F 58% 30.25 in 10.0 mi WNW 15.0 mph 20.7 mph N/A   Scattered Clouds
9:18 PM 21.2 °F 7.3 °F 6.8 °F 54% 30.26 in 10.0 mi WNW 16.1 mph 26.5 mph N/A   Clear
9:38 PM 19.4 °F 5.0 °F 3.2 °F 49% 30.26 in 10.0 mi NW 16.1 mph 26.5 mph N/A   Clear
9:58 PM 19.4 °F 7.2 °F 3.2 °F 49% 30.27 in 10.0 mi NW 11.5 mph 19.6 mph N/A   Clear
10:18 PM 19.4 °F 7.9 °F 5.0 °F 54% 30.27 in 10.0 mi WNW 10.4 mph 20.7 mph N/A   Clear
10:38 PM 19.4 °F 6.0 °F 3.2 °F 49% 30.27 in 10.0 mi NW 13.8 mph 24.2 mph N/A   Clear
10:58 PM 19.4 °F 6.6 °F 3.2 °F 49% 30.27 in 10.0 mi WNW 12.7 mph 24.2 mph N/A   Clear
11:18 PM 17.6 °F 7.3 °F 3.2 °F 53% 30.28 in 10.0 mi NW 8.1 mph 17.3 mph N/A   Clear
11:38 PM 17.6 °F 5.0 °F 5.0 °F 58% 30.28 in 10.0 mi NW 11.5 mph 16.1 mph N/A   Clear
11:58 PM 17.6 °F 6.4 °F 5.0 °F 58% 30.28 in 10.0 mi WNW 9.2 mph - N/A   Clear